Santa Rosa, CA

11:11 AM PST on December 15, 2019 (GMT -0800)
Sonoma County

Weather History for KSTS - October, 2019

Change the Weather History Date:

Sunday, October 27, 2019

  Actual Average Record
Temperature  
Mean Temperature 56 °F 58 °F  
Max Temperature 68 °F 73 °F 97 °F (2003)
Min Temperature 44 °F 44 °F 36 °F (2010)
Degree Days  
Heating Degree Days 9    
Month to date heating degree days 117  
Since 1 July heating degree days 153  
Cooling Degree Days 0    
Month to date cooling degree days 29  
Year to date cooling degree days 569  
Growing Degree Days 7 (Base 50)    
Moisture  
Dew Point 14 °F    
Average Humidity 52    
Maximum Humidity 93    
Minimum Humidity 10    
Precipitation  
Precipitation 0.00 in 0.11 in 1.00 in (1999)
Month to date precipitation 0.02 1.60  
Year to date precipitation 38.54 24.13  
Sea Level Pressure  
Sea Level Pressure 29.91 in    
Wind  
Wind Speed 20 mph (NNE)    
Max Wind Speed 36 mph    
Max Gust Speed 49 mph    
Visibility 3 miles    
Events Rain    
T = Trace of Precipitation, MM = Missing Value Source: NWS Daily Summary

Daily Weather History Graph

Daily Weather History Graph

Search for Another Location

Airport or City:

Astronomy

Oct. 27, 2019 Rise Set
Actual Time 7:32 AM PDT 6:17 PM PDT
Civil Twilight 7:05 AM PDT 6:44 PM PDT
Nautical Twilight 6:34 AM PDT 7:15 PM PDT
Astronomical Twilight 6:03 AM PDT 7:46 PM PDT
Moon 6:48 AM PDT (10/27) 6:29 PM PDT (10/27)
Length of Visible Light 11h 39m
Length of Day
10h 44m
Waning Crescent, 0% of the Moon is Illuminated
Oct 27
Waning Crescent
Oct 27
New
Nov 4
First Quarter
Nov 12
Full
Nov 19
Last Quarter

Hourly Weather History & Observations

Time (PDT) Temp. Dew Point Humidity Pressure Visibility Wind Dir Wind Speed Gust Speed Precip Events Conditions
12:53 AM 46.9 °F 44.1 °F 90% 29.74 in 7.0 mi Calm Calm - N/A   Smoke
1:53 AM 48.9 °F 41.0 °F 74% 29.75 in 8.0 mi North 6.9 mph - N/A   Smoke
2:53 AM 66.9 °F 9.0 °F 10% 29.73 in 10.0 mi NNE 20.7 mph 33.4 mph 0.00 in Rain Light Rain
3:53 AM 64.0 °F 6.1 °F 10% 29.75 in 10.0 mi NNE 20.7 mph 32.2 mph 0.00 in Rain Light Rain
4:53 AM 61.0 °F 10.9 °F 14% 29.77 in 10.0 mi NNE 23.0 mph 35.7 mph 0.00 in Rain Light Rain
5:53 AM 59.0 °F 9.0 °F 14% 29.82 in 5.0 mi NNE 18.4 mph 25.3 mph 0.00 in Rain Light Rain
6:11 AM 60.1 °F 10.0 °F 14% 29.84 in 2.0 mi NNE 15.0 mph 28.8 mph 0.00 in Rain Light Rain
6:18 AM 60.1 °F 10.0 °F 14% 29.84 in 1.2 mi North 20.7 mph 26.5 mph 0.00 in Rain Light Rain
6:32 AM 59.0 °F 10.9 °F 15% 29.84 in 1.5 mi North 28.8 mph 35.7 mph 0.00 in Rain Light Rain
6:53 AM 59.0 °F 10.0 °F 14% 29.83 in 2.5 mi NNE 33.4 mph 43.7 mph 0.00 in Rain Light Rain
7:11 AM 57.9 °F 10.9 °F 16% 29.89 in 3.0 mi NNE 23.0 mph 40.3 mph 0.00 in Rain Light Rain
7:53 AM 55.9 °F 14.0 °F 19% 29.86 in 3.0 mi North 23.0 mph 34.5 mph 0.00 in Rain Light Rain
8:38 AM 57.9 °F 16.0 °F 19% 29.89 in 2.5 mi NNE 28.8 mph 44.9 mph 0.00 in Rain Light Rain
8:53 AM 57.9 °F 17.1 °F 20% 29.89 in 1.5 mi NNE 23.0 mph 38.0 mph 0.00 in Rain Light Rain
9:14 AM 57.9 °F 17.1 °F 20% 29.92 in 2.0 mi NE 25.3 mph 39.1 mph 0.00 in Rain Light Rain
9:22 AM 59.0 °F 17.1 °F 20% 29.92 in 1.5 mi NE 29.9 mph 36.8 mph 0.00 in Rain Light Rain
9:53 AM 60.1 °F 16.0 °F 18% 29.91 in 0.8 mi North 20.7 mph 33.4 mph 0.00 in Rain Light Rain
10:13 AM 61.0 °F 16.0 °F 17% 29.93 in 1.0 mi NNE 20.7 mph 34.5 mph 0.00 in Rain Light Rain
10:53 AM 63.0 °F 14.0 °F 15% 29.93 in 1.2 mi North 20.7 mph 31.1 mph 0.00 in Rain Light Rain
11:28 AM 64.0 °F 14.0 °F 14% 29.95 in 0.8 mi NNE 25.3 mph 35.7 mph 0.00 in Rain Light Rain
11:42 AM 64.0 °F 14.0 °F 14% 29.95 in 1.0 mi NNE 18.4 mph 28.8 mph 0.00 in Rain Light Rain
11:44 AM 64.0 °F 14.0 °F 14% 29.95 in 0.8 mi North 20.7 mph 28.8 mph 0.00 in Rain Light Rain
11:53 AM 64.9 °F 14.0 °F 14% 29.94 in 0.8 mi North 17.3 mph 27.6 mph 0.00 in Rain Light Rain
12:09 PM 66.0 °F 12.9 °F 13% 29.95 in 1.0 mi NNE 17.3 mph 32.2 mph 0.00 in Rain Light Rain
12:32 PM 66.0 °F 14.0 °F 13% 29.96 in 0.8 mi NNE 19.6 mph 32.2 mph 0.00 in Rain Light Rain
12:53 PM 64.9 °F 14.0 °F 14% 29.95 in 0.8 mi NE 20.7 mph 33.4 mph 0.00 in Rain Light Rain
1:36 PM 66.0 °F 12.9 °F 13% 29.96 in 1.2 mi NE 16.1 mph 29.9 mph 0.00 in Rain Light Rain
1:46 PM 66.9 °F 12.9 °F 12% 29.96 in 0.8 mi NE 20.7 mph 33.4 mph 0.00 in Rain Light Rain
1:53 PM 66.9 °F 12.0 °F 12% 29.94 in 1.5 mi NNE 24.2 mph 38.0 mph 0.00 in Rain Light Rain
2:16 PM 66.9 °F 12.0 °F 12% 29.95 in 1.0 mi NE 16.1 mph 26.5 mph 0.00 in Rain Light Rain
2:35 PM 66.9 °F 12.9 °F 12% 29.95 in 0.8 mi North 15.0 mph - 0.00 in Rain Light Rain
2:45 PM 66.9 °F 14.0 °F 13% 29.94 in 1.2 mi NE 19.6 mph 26.5 mph 0.00 in Rain Light Rain
2:53 PM 68.0 °F 12.0 °F 11% 29.92 in 1.5 mi NE 21.9 mph 32.2 mph 0.00 in Rain Light Rain
3:53 PM 66.9 °F 12.0 °F 12% 29.93 in 1.8 mi NE 12.7 mph - 0.00 in Rain Light Rain
4:53 PM 66.9 °F 12.9 °F 12% 29.93 in 1.0 mi NNE 18.4 mph 27.6 mph 0.00 in Rain Light Rain
5:53 PM 66.0 °F 12.9 °F 13% 29.94 in 1.5 mi NNE 12.7 mph 23.0 mph 0.00 in   Smoke
6:34 PM 64.0 °F 14.0 °F 14% 29.97 in 3.0 mi North 16.1 mph - 0.00 in Rain Light Rain
6:53 PM 63.0 °F 15.1 °F 16% 29.96 in 4.0 mi North 16.1 mph - 0.00 in   Smoke
7:53 PM 64.0 °F 14.0 °F 14% 29.95 in 5.0 mi North 17.3 mph 29.9 mph 0.00 in Rain Light Rain
8:44 PM 63.0 °F 14.0 °F 15% 29.97 in 4.0 mi North 13.8 mph 26.5 mph 0.00 in   Smoke
8:53 PM 64.0 °F 14.0 °F 14% 29.96 in 4.0 mi North 20.7 mph 31.1 mph 0.00 in Rain Light Rain
9:16 PM 63.0 °F 14.0 °F 15% 29.99 in 4.0 mi North 15.0 mph 24.2 mph 0.00 in   Smoke
9:53 PM 64.0 °F 12.9 °F 14% 29.95 in 4.0 mi NNE 16.1 mph 34.5 mph 0.00 in   Smoke
10:05 PM 64.0 °F 12.9 °F 14% 29.99 in 4.0 mi NNW 10.4 mph 26.5 mph N/A   Smoke
10:37 PM 63.0 °F 12.0 °F 14% 30.00 in 3.0 mi North 15.0 mph 19.6 mph 0.00 in   Smoke
10:53 PM 63.0 °F 10.9 °F 13% 29.98 in 4.0 mi NNE 17.3 mph 24.2 mph 0.00 in   Smoke
11:53 PM 62.1 °F 10.9 °F 13% 29.99 in 5.0 mi NNE 19.6 mph 24.2 mph 0.00 in   Smoke